BAW813C EKCH-EGLL

Flight info

Callsign BAW813C
Flight time 1h 36m
Altitude 36000
Route LANGO2A LANGO DCT RAXLU DCT JUIST DCT ABNED L980 LOGAN LOGAN2H
Aircraft A320/M-SDE3FGIJ1KRWXY/SB1

Departure

Time 2026-05-06 10:44
Airport Copenhagen Kastrup Airport (EKCH)

Arrival

Time 2026-05-06 12:20
Airport London Heathrow Airport (EGLL)
Time Latitude Longitude Altitude Speed Heading
2026-05-06 09:31 55.62697 12.65082 17 ft 0 kts 289°
2026-05-06 09:34 55.62697 12.65081 17 ft 0 kts 290°
2026-05-06 10:31 55.62695 12.65089 17 ft 3 kts 290°
2026-05-06 10:31 55.62688 12.65123 20 ft 3 kts 292°
2026-05-06 10:31 55.62680 12.65155 18 ft 3 kts 301°
2026-05-06 10:32 55.62669 12.65182 18 ft 3 kts 327°
2026-05-06 10:32 55.62653 12.65192 17 ft 3 kts 355°
2026-05-06 10:32 55.62634 12.65194 18 ft 3 kts 358°
2026-05-06 10:32 55.62613 12.65195 17 ft 3 kts 360°
2026-05-06 10:33 55.62598 12.65195 21 ft 0 kts 359°
2026-05-06 10:35 55.62600 12.65195 21 ft 2 kts 359°
2026-05-06 10:36 55.62623 12.65200 19 ft 5 kts 13°
2026-05-06 10:36 55.62657 12.65264 17 ft 9 kts 61°
2026-05-06 10:36 55.62658 12.65277 17 ft 4 kts 82°
2026-05-06 10:36 55.62600 12.65319 17 ft 15 kts 173°
2026-05-06 10:37 55.62485 12.65325 17 ft 17 kts 178°
2026-05-06 10:37 55.62363 12.65330 17 ft 18 kts 179°
2026-05-06 10:37 55.62276 12.65221 17 ft 16 kts 220°
2026-05-06 10:37 55.62174 12.65140 17 ft 17 kts 211°
2026-05-06 10:38 55.62075 12.65024 18 ft 18 kts 214°
2026-05-06 10:38 55.61968 12.64903 19 ft 19 kts 212°
2026-05-06 10:38 55.61857 12.64776 17 ft 19 kts 213°
2026-05-06 10:38 55.61735 12.64636 17 ft 20 kts 213°
2026-05-06 10:39 55.61622 12.64506 17 ft 21 kts 213°
2026-05-06 10:39 55.61501 12.64366 17 ft 23 kts 212°
2026-05-06 10:39 55.61369 12.64216 17 ft 25 kts 213°
2026-05-06 10:39 55.61211 12.64035 17 ft 26 kts 213°
2026-05-06 10:40 55.61066 12.63867 18 ft 23 kts 213°
2026-05-06 10:40 55.60942 12.63725 17 ft 22 kts 213°
2026-05-06 10:40 55.60808 12.63571 17 ft 24 kts 213°
2026-05-06 10:40 55.60661 12.63399 17 ft 26 kts 216°
2026-05-06 10:41 55.60530 12.63204 17 ft 24 kts 222°
2026-05-06 10:41 55.60439 12.63111 17 ft 16 kts 185°
2026-05-06 10:41 55.60365 12.63205 19 ft 18 kts 120°
2026-05-06 10:41 55.60361 12.63381 19 ft 18 kts 50°
2026-05-06 10:42 55.60387 12.63424 18 ft 0 kts 41°
2026-05-06 10:42 55.60388 12.63426 18 ft 2 kts 41°
2026-05-06 10:43 55.60520 12.63631 18 ft 60 kts 41°
2026-05-06 10:43 55.60997 12.64368 18 ft 117 kts 41°
2026-05-06 10:43 55.61470 12.65096 32 ft 146 kts 41°
2026-05-06 10:44 55.63352 12.68020 1445 ft 158 kts 43°
2026-05-06 10:44 55.64219 12.69371 1770 ft 178 kts 43°
2026-05-06 10:44 55.65211 12.70915 2030 ft 202 kts 42°
2026-05-06 10:44 55.66347 12.72637 2432 ft 227 kts 42°
2026-05-06 10:45 55.67608 12.74518 3019 ft 244 kts 41°
2026-05-06 10:45 55.68903 12.76527 3906 ft 250 kts 49°
2026-05-06 10:45 55.69794 12.79157 4805 ft 252 kts 72°
2026-05-06 10:45 55.70016 12.82255 5627 ft 260 kts 94°
2026-05-06 10:46 55.69501 12.85339 5924 ft 265 kts 119°
2026-05-06 10:46 55.68278 12.87749 5999 ft 267 kts 144°
2026-05-06 10:46 55.66582 12.89148 6008 ft 270 kts 158°
2026-05-06 10:46 55.64827 12.90255 6119 ft 274 kts 159°
2026-05-06 10:47 55.62943 12.90880 6969 ft 278 kts 180°
2026-05-06 10:47 55.61039 12.90120 7783 ft 287 kts 206°
2026-05-06 10:47 55.59491 12.87929 8664 ft 288 kts 233°
2026-05-06 10:47 55.58476 12.84893 9604 ft 287 kts 242°
2026-05-06 10:48 55.57526 12.81775 10356 ft 293 kts 242°
2026-05-06 10:48 55.56521 12.78470 10571 ft 316 kts 242°
2026-05-06 10:48 55.55446 12.74955 10905 ft 332 kts 242°
2026-05-06 10:48 55.54337 12.71354 11544 ft 337 kts 242°
2026-05-06 10:49 55.53209 12.67708 12257 ft 339 kts 241°
2026-05-06 10:49 55.52071 12.64046 12974 ft 341 kts 241°
2026-05-06 10:49 55.50942 12.60414 13689 ft 343 kts 241°
2026-05-06 10:49 55.49787 12.56701 14293 ft 347 kts 241°
2026-05-06 10:50 55.48619 12.52958 14877 ft 351 kts 241°
2026-05-06 10:50 55.47437 12.49180 15492 ft 353 kts 241°
2026-05-06 10:50 55.46244 12.45370 16091 ft 356 kts 241°
2026-05-06 10:50 55.45047 12.41546 16671 ft 358 kts 241°
2026-05-06 10:51 55.43835 12.37681 17262 ft 361 kts 241°
2026-05-06 10:51 55.42615 12.33795 17858 ft 364 kts 241°
2026-05-06 10:51 55.41802 12.31208 18248 ft 366 kts 241°
2026-05-06 10:51 55.40151 12.25956 18993 ft 368 kts 241°
2026-05-06 10:52 55.39326 12.23337 19402 ft 369 kts 241°
2026-05-06 10:52 55.37671 12.18096 20159 ft 371 kts 241°
2026-05-06 10:52 55.36829 12.15436 20515 ft 372 kts 241°
2026-05-06 10:52 55.35153 12.10151 21219 ft 375 kts 241°
2026-05-06 10:53 55.33879 12.06145 21715 ft 377 kts 240°
2026-05-06 10:53 55.33008 12.03416 22040 ft 378 kts 240°
2026-05-06 10:53 55.31716 11.99378 22534 ft 381 kts 240°
2026-05-06 10:53 55.30436 11.95383 23013 ft 383 kts 240°
2026-05-06 10:54 55.29126 11.91299 23489 ft 385 kts 240°
2026-05-06 10:54 55.27785 11.87121 23913 ft 387 kts 240°
2026-05-06 10:54 55.26466 11.83065 24314 ft 389 kts 239°
2026-05-06 10:54 55.25107 11.78940 24717 ft 391 kts 239°
2026-05-06 10:55 55.23740 11.74817 25094 ft 393 kts 239°
2026-05-06 10:55 55.22356 11.70659 25493 ft 396 kts 239°
2026-05-06 10:55 55.20966 11.66482 25815 ft 399 kts 239°
2026-05-06 10:55 55.19561 11.62266 26156 ft 402 kts 239°
2026-05-06 10:56 55.18152 11.58034 26574 ft 403 kts 238°
2026-05-06 10:56 55.16740 11.53788 26989 ft 404 kts 238°
2026-05-06 10:56 55.15320 11.49528 27367 ft 406 kts 238°
2026-05-06 10:56 55.13892 11.45255 27736 ft 408 kts 238°
2026-05-06 10:57 55.12453 11.40961 28107 ft 411 kts 237°
2026-05-06 10:57 55.11004 11.36642 28469 ft 413 kts 237°
2026-05-06 10:57 55.09544 11.32306 28816 ft 415 kts 237°
2026-05-06 10:57 55.08078 11.27956 29165 ft 417 kts 237°
2026-05-06 10:58 55.06604 11.23584 29502 ft 419 kts 237°
2026-05-06 10:58 55.05123 11.19204 29973 ft 419 kts 237°
2026-05-06 10:58 55.03642 11.14831 30417 ft 417 kts 236°
2026-05-06 10:58 55.02168 11.10493 30862 ft 416 kts 236°
2026-05-06 10:59 55.00676 11.06110 31238 ft 416 kts 236°
2026-05-06 10:59 54.99194 11.01758 31580 ft 417 kts 236°
2026-05-06 10:59 54.97734 10.97476 31975 ft 417 kts 236°
2026-05-06 10:59 54.96251 10.93140 32489 ft 414 kts 235°
2026-05-06 11:00 54.94788 10.88860 33081 ft 410 kts 236°
2026-05-06 11:00 54.93337 10.84619 33586 ft 407 kts 234°
2026-05-06 11:00 54.91890 10.80400 34046 ft 405 kts 234°
2026-05-06 11:00 54.90446 10.76196 34410 ft 405 kts 235°
2026-05-06 11:01 54.89003 10.72003 34713 ft 405 kts 235°
2026-05-06 11:01 54.87554 10.67799 34994 ft 405 kts 235°
2026-05-06 11:01 54.86104 10.63608 35296 ft 406 kts 235°
2026-05-06 11:01 54.84646 10.59408 35574 ft 406 kts 236°
2026-05-06 11:02 54.83184 10.55200 35831 ft 407 kts 236°
2026-05-06 11:02 54.80248 10.46776 35904 ft 416 kts 236°
2026-05-06 11:03 54.77234 10.38136 35918 ft 420 kts 236°
2026-05-06 11:03 54.74238 10.29567 35918 ft 421 kts 236°
2026-05-06 11:04 54.71196 10.20916 35910 ft 421 kts 236°
2026-05-06 11:04 54.68160 10.12311 35917 ft 421 kts 236°
2026-05-06 11:05 54.65116 10.03714 35923 ft 421 kts 236°
2026-05-06 11:05 54.62025 9.95038 35924 ft 421 kts 236°
2026-05-06 11:06 54.58955 9.86441 35913 ft 422 kts 236°
2026-05-06 11:06 54.55878 9.77838 35915 ft 422 kts 236°
2026-05-06 11:07 54.52783 9.69216 35940 ft 423 kts 236°
2026-05-06 11:07 54.49670 9.60581 35944 ft 422 kts 236°
2026-05-06 11:08 54.46591 9.52058 35944 ft 421 kts 236°
2026-05-06 11:08 54.43484 9.43494 35942 ft 421 kts 235°
2026-05-06 11:09 54.40348 9.34880 35933 ft 421 kts 235°
2026-05-06 11:09 54.37277 9.26461 35916 ft 421 kts 235°
2026-05-06 11:10 54.34157 9.17952 35918 ft 421 kts 235°
2026-05-06 11:10 54.31027 9.09466 35918 ft 422 kts 235°
2026-05-06 11:11 54.27889 9.00979 35929 ft 422 kts 235°
2026-05-06 11:11 54.24755 8.92493 35929 ft 422 kts 235°
2026-05-06 11:12 54.21621 8.84043 35921 ft 421 kts 235°
2026-05-06 11:12 54.18468 8.75584 35918 ft 421 kts 235°
2026-05-06 11:13 54.15328 8.67205 35910 ft 422 kts 234°
2026-05-06 11:13 54.12502 8.59678 35900 ft 423 kts 234°
2026-05-06 11:14 54.09323 8.51247 35902 ft 423 kts 234°
2026-05-06 11:14 54.06149 8.42848 35926 ft 423 kts 235°
2026-05-06 11:15 54.02999 8.34528 35924 ft 423 kts 235°
2026-05-06 11:15 53.99785 8.26074 35925 ft 422 kts 235°
2026-05-06 11:16 53.96607 8.17759 35912 ft 422 kts 235°
2026-05-06 11:16 53.93402 8.09395 35907 ft 423 kts 234°
2026-05-06 11:17 53.90184 8.01036 35900 ft 423 kts 234°
2026-05-06 11:17 53.86958 7.92687 35899 ft 424 kts 234°
2026-05-06 11:18 53.83731 7.84335 35915 ft 424 kts 235°
2026-05-06 11:18 53.80503 7.75987 35911 ft 424 kts 235°
2026-05-06 11:19 53.77263 7.67658 35910 ft 424 kts 234°
2026-05-06 11:19 53.74013 7.59347 35900 ft 424 kts 234°
2026-05-06 11:20 53.70759 7.51042 35895 ft 425 kts 234°
2026-05-06 11:20 53.67487 7.42736 35902 ft 425 kts 234°
2026-05-06 11:21 53.64212 7.34415 35907 ft 426 kts 234°
2026-05-06 11:21 53.60951 7.26172 35918 ft 426 kts 235°
2026-05-06 11:22 53.57655 7.17894 35921 ft 426 kts 235°
2026-05-06 11:22 53.54317 7.09538 35918 ft 426 kts 235°
2026-05-06 11:23 53.51042 7.01369 35905 ft 426 kts 234°
2026-05-06 11:23 53.47736 6.93091 35901 ft 427 kts 235°
2026-05-06 11:24 53.44414 6.84810 35898 ft 428 kts 234°
2026-05-06 11:24 53.41071 6.76552 35906 ft 428 kts 234°
2026-05-06 11:25 53.37723 6.68291 35917 ft 429 kts 234°
2026-05-06 11:25 53.34383 6.60059 35918 ft 428 kts 234°
2026-05-06 11:26 53.31019 6.51816 35931 ft 428 kts 234°
2026-05-06 11:26 53.27663 6.43618 35925 ft 427 kts 234°
2026-05-06 11:27 53.24295 6.35446 35921 ft 427 kts 234°
2026-05-06 11:27 53.20957 6.27340 35926 ft 427 kts 234°
2026-05-06 11:28 53.17588 6.19172 35923 ft 427 kts 234°
2026-05-06 11:28 53.14222 6.11037 35945 ft 427 kts 234°
2026-05-06 11:29 53.10839 6.02910 35938 ft 427 kts 234°
2026-05-06 11:29 53.07449 5.94798 35911 ft 428 kts 234°
2026-05-06 11:30 53.04043 5.86667 35917 ft 428 kts 234°
2026-05-06 11:30 53.00645 5.78549 35917 ft 429 kts 234°
2026-05-06 11:31 52.97262 5.70483 35924 ft 429 kts 234°
2026-05-06 11:31 52.93838 5.62374 35922 ft 429 kts 234°
2026-05-06 11:32 52.90402 5.54284 35922 ft 429 kts 234°
2026-05-06 11:32 52.86964 5.46212 35915 ft 429 kts 234°
2026-05-06 11:33 52.83526 5.38143 35914 ft 429 kts 234°
2026-05-06 11:33 52.80079 5.30078 35909 ft 429 kts 234°
2026-05-06 11:34 52.76623 5.22040 35923 ft 430 kts 234°
2026-05-06 11:34 52.73160 5.14009 35917 ft 429 kts 233°
2026-05-06 11:35 52.69696 5.05983 35913 ft 429 kts 233°
2026-05-06 11:35 52.66258 4.98038 35921 ft 429 kts 233°
2026-05-06 11:36 52.62781 4.90041 35902 ft 430 kts 233°
2026-05-06 11:36 52.59296 4.82048 35896 ft 430 kts 234°
2026-05-06 11:37 52.55803 4.74055 35894 ft 430 kts 233°
2026-05-06 11:37 52.52297 4.66071 35899 ft 431 kts 233°
2026-05-06 11:38 52.48808 4.58163 35904 ft 431 kts 233°
2026-05-06 11:38 52.45296 4.50206 35905 ft 431 kts 233°
2026-05-06 11:39 52.41777 4.42257 35894 ft 431 kts 233°
2026-05-06 11:39 52.38249 4.34300 35904 ft 432 kts 233°
2026-05-06 11:40 52.34709 4.26348 35913 ft 432 kts 233°
2026-05-06 11:40 52.31213 4.18532 35916 ft 432 kts 233°
2026-05-06 11:41 52.27662 4.10619 35918 ft 432 kts 233°
2026-05-06 11:41 52.24101 4.02719 35925 ft 432 kts 233°
2026-05-06 11:42 52.20534 3.94822 35912 ft 432 kts 233°
2026-05-06 11:42 52.16963 3.86929 35933 ft 432 kts 233°
2026-05-06 11:43 52.13412 3.79121 35931 ft 432 kts 232°
2026-05-06 11:43 52.09831 3.71267 35936 ft 432 kts 233°
2026-05-06 11:44 52.04455 3.59511 35946 ft 432 kts 232°
2026-05-06 11:44 52.00877 3.51691 35947 ft 432 kts 232°
2026-05-06 11:45 51.97294 3.43877 35940 ft 432 kts 232°
2026-05-06 11:45 51.93715 3.36126 35942 ft 432 kts 232°
2026-05-06 11:46 51.90106 3.28350 35950 ft 432 kts 232°
2026-05-06 11:46 51.86623 3.20414 35954 ft 432 kts 241°
2026-05-06 11:47 51.84590 3.11296 35944 ft 434 kts 259°
2026-05-06 11:47 51.83927 3.01588 35941 ft 435 kts 263°
2026-05-06 11:48 51.83298 2.91908 35944 ft 435 kts 262°
2026-05-06 11:48 51.82642 2.82186 35955 ft 435 kts 262°
2026-05-06 11:49 51.81983 2.72485 35945 ft 435 kts 262°
2026-05-06 11:49 51.81432 2.64391 35956 ft 435 kts 262°
2026-05-06 11:50 51.80761 2.54647 35957 ft 435 kts 262°
2026-05-06 11:50 51.80084 2.44945 35966 ft 435 kts 262°
2026-05-06 11:51 51.79627 2.38509 35622 ft 436 kts 262°
2026-05-06 11:51 51.79392 2.35203 34927 ft 443 kts 262°
2026-05-06 11:51 51.79036 2.30238 34079 ft 448 kts 263°
2026-05-06 11:51 51.78675 2.25210 33220 ft 450 kts 263°
2026-05-06 11:52 51.78322 2.20257 32293 ft 453 kts 263°
2026-05-06 11:52 51.77998 2.15207 31566 ft 451 kts 263°
2026-05-06 11:52 51.77704 2.10156 30818 ft 450 kts 264°
2026-05-06 11:52 51.77428 2.05126 30171 ft 447 kts 264°
2026-05-06 11:53 51.77154 2.00157 29542 ft 442 kts 263°
2026-05-06 11:53 51.76875 1.95269 28962 ft 436 kts 263°
2026-05-06 11:53 51.76588 1.90422 28384 ft 429 kts 263°
2026-05-06 11:53 51.76298 1.85651 27820 ft 423 kts 263°
2026-05-06 11:54 51.76006 1.80954 27257 ft 418 kts 263°
2026-05-06 11:54 51.75721 1.76387 26715 ft 413 kts 263°
2026-05-06 11:54 51.75436 1.71813 26175 ft 408 kts 263°
2026-05-06 11:54 51.75152 1.67284 25649 ft 403 kts 263°
2026-05-06 11:55 51.74868 1.62796 25133 ft 399 kts 263°
2026-05-06 11:55 51.74588 1.58363 24587 ft 396 kts 263°
2026-05-06 11:55 51.74309 1.53959 23989 ft 395 kts 263°
2026-05-06 11:55 51.74028 1.49558 23366 ft 394 kts 263°
2026-05-06 11:56 51.73744 1.45172 22741 ft 391 kts 263°
2026-05-06 11:56 51.73462 1.40838 22158 ft 388 kts 263°
2026-05-06 11:56 51.73181 1.36522 21578 ft 385 kts 263°
2026-05-06 11:56 51.72907 1.32301 21017 ft 383 kts 263°
2026-05-06 11:57 51.72626 1.28003 20441 ft 381 kts 263°
2026-05-06 11:57 51.72350 1.23822 19881 ft 379 kts 263°
2026-05-06 11:57 51.72070 1.19604 19310 ft 377 kts 264°
2026-05-06 11:57 51.71791 1.15440 18746 ft 375 kts 264°
2026-05-06 11:58 51.71507 1.11254 18183 ft 373 kts 264°
2026-05-06 11:58 51.71222 1.07103 17575 ft 370 kts 264°
2026-05-06 11:58 51.70942 1.03012 17033 ft 366 kts 264°
2026-05-06 11:58 51.70662 0.98956 16493 ft 362 kts 264°
2026-05-06 11:59 51.70386 0.94943 15950 ft 358 kts 264°
2026-05-06 11:59 51.70114 0.90987 15394 ft 355 kts 264°
2026-05-06 11:59 51.69843 0.87046 14840 ft 352 kts 264°
2026-05-06 11:59 51.69577 0.83196 14300 ft 350 kts 264°
2026-05-06 12:00 51.69308 0.79352 13752 ft 348 kts 264°
2026-05-06 12:00 51.69030 0.75442 13167 ft 345 kts 265°
2026-05-06 12:00 51.68753 0.71570 12617 ft 341 kts 264°
2026-05-06 12:00 51.68484 0.67795 12088 ft 338 kts 265°
2026-05-06 12:01 51.68219 0.64042 11560 ft 335 kts 265°
2026-05-06 12:01 51.67950 0.60287 11096 ft 331 kts 265°
2026-05-06 12:01 51.67668 0.56457 10948 ft 317 kts 265°
2026-05-06 12:01 51.67427 0.53195 10838 ft 307 kts 265°
2026-05-06 12:02 51.67181 0.49845 10711 ft 297 kts 265°
2026-05-06 12:02 51.66943 0.46593 10527 ft 289 kts 266°
2026-05-06 12:02 51.66701 0.43332 10147 ft 289 kts 265°
2026-05-06 12:02 51.66462 0.40134 9722 ft 291 kts 265°
2026-05-06 12:03 51.66219 0.36907 9447 ft 286 kts 266°
2026-05-06 12:03 51.65982 0.33737 9079 ft 285 kts 267°
2026-05-06 12:03 51.65746 0.30558 8728 ft 284 kts 266°
2026-05-06 12:03 51.65506 0.27343 8345 ft 283 kts 265°
2026-05-06 12:04 51.65272 0.24240 8107 ft 278 kts 265°
2026-05-06 12:04 51.65043 0.21236 7993 ft 269 kts 266°
2026-05-06 12:04 51.64796 0.18002 7995 ft 254 kts 265°
2026-05-06 12:04 51.64611 0.15542 7996 ft 246 kts 267°
2026-05-06 12:05 51.64426 0.12773 7995 ft 245 kts 269°
2026-05-06 12:05 51.64280 0.10077 7998 ft 245 kts 267°
2026-05-06 12:05 51.64143 0.07352 8000 ft 245 kts 269°
2026-05-06 12:05 51.63997 0.04479 8000 ft 245 kts 269°
2026-05-06 12:06 51.63859 0.01842 8001 ft 245 kts 267°
2026-05-06 12:06 51.63713 -0.00880 8020 ft 245 kts 269°
2026-05-06 12:06 51.63568 -0.03565 8015 ft 242 kts 268°
2026-05-06 12:06 51.63417 -0.06320 8018 ft 242 kts 268°
2026-05-06 12:07 51.63257 -0.09212 8023 ft 242 kts 268°
2026-05-06 12:07 51.63098 -0.12019 8025 ft 242 kts 268°
2026-05-06 12:07 51.62965 -0.14376 8027 ft 242 kts 269°
2026-05-06 12:07 51.62813 -0.17079 8024 ft 242 kts 268°
2026-05-06 12:08 51.62648 -0.19943 8029 ft 242 kts 268°
2026-05-06 12:08 51.62500 -0.22461 8029 ft 242 kts 268°
2026-05-06 12:08 51.62341 -0.25168 8030 ft 242 kts 268°
2026-05-06 12:08 51.62186 -0.27854 8029 ft 242 kts 268°
2026-05-06 12:09 51.62024 -0.30686 8028 ft 242 kts 268°
2026-05-06 12:09 51.61873 -0.33271 8001 ft 242 kts 268°
2026-05-06 12:09 51.61712 -0.36010 8002 ft 243 kts 268°
2026-05-06 12:09 51.61554 -0.38678 8002 ft 242 kts 268°
2026-05-06 12:10 51.61395 -0.41377 8002 ft 242 kts 268°
2026-05-06 12:10 51.61235 -0.44074 8002 ft 242 kts 268°
2026-05-06 12:10 51.61073 -0.46763 8002 ft 242 kts 268°
2026-05-06 12:10 51.60913 -0.49465 8003 ft 242 kts 268°
2026-05-06 12:11 51.60740 -0.52374 7737 ft 248 kts 268°
2026-05-06 12:11 51.60584 -0.54922 7572 ft 244 kts 268°
2026-05-06 12:11 51.60417 -0.57607 7395 ft 240 kts 268°
2026-05-06 12:11 51.60252 -0.60279 7223 ft 239 kts 268°
2026-05-06 12:12 51.60089 -0.62934 6978 ft 238 kts 268°
2026-05-06 12:12 51.59927 -0.65581 6682 ft 237 kts 268°
2026-05-06 12:12 51.59763 -0.68215 6392 ft 237 kts 268°
2026-05-06 12:12 51.59598 -0.70857 6107 ft 236 kts 268°
2026-05-06 12:13 51.59432 -0.73500 5996 ft 235 kts 268°
2026-05-06 12:13 51.59231 -0.76063 5990 ft 238 kts 259°
2026-05-06 12:13 51.58412 -0.78342 5870 ft 237 kts 225°
2026-05-06 12:13 51.56982 -0.79544 5743 ft 233 kts 192°
2026-05-06 12:14 51.55391 -0.79535 5598 ft 227 kts 175°
2026-05-06 12:14 51.53843 -0.79392 5472 ft 219 kts 178°
2026-05-06 12:14 51.52343 -0.79319 5329 ft 212 kts 179°
2026-05-06 12:14 51.50879 -0.79261 5133 ft 209 kts 179°
2026-05-06 12:15 51.49423 -0.79188 4912 ft 208 kts 173°
2026-05-06 12:15 51.48150 -0.78314 4696 ft 198 kts 130°
2026-05-06 12:15 51.47603 -0.76417 4340 ft 185 kts 88°
2026-05-06 12:15 51.47616 -0.74356 3966 ft 186 kts 85°
2026-05-06 12:16 51.47629 -0.72281 3616 ft 186 kts 85°
2026-05-06 12:16 51.47640 -0.70203 3292 ft 186 kts 84°
2026-05-06 12:16 51.47652 -0.68133 2966 ft 185 kts 85°
2026-05-06 12:16 51.47664 -0.65913 2632 ft 181 kts 85°
2026-05-06 12:17 51.47672 -0.64138 2480 ft 167 kts 84°
2026-05-06 12:17 51.47683 -0.62236 2137 ft 162 kts 83°
2026-05-06 12:17 51.47691 -0.60732 1805 ft 157 kts 84°
2026-05-06 12:17 51.47701 -0.58771 1467 ft 158 kts 83°
2026-05-06 12:18 51.47705 -0.57638 1275 ft 149 kts 83°
2026-05-06 12:18 51.47715 -0.55565 1023 ft 141 kts 83°
2026-05-06 12:18 51.47721 -0.54300 847 ft 137 kts 84°
2026-05-06 12:18 51.47728 -0.53015 696 ft 137 kts 83°
2026-05-06 12:19 51.47735 -0.51235 474 ft 132 kts 82°
2026-05-06 12:19 51.47742 -0.49944 319 ft 130 kts 83°
2026-05-06 12:19 51.47749 -0.48177 103 ft 130 kts 86°
2026-05-06 12:19 51.47756 -0.47051 91 ft 92 kts 90°
2026-05-06 12:20 51.47757 -0.46320 91 ft 28 kts 89°
2026-05-06 12:20 51.47731 -0.46176 89 ft 19 kts 135°
2026-05-06 12:20 51.47606 -0.46101 88 ft 13 kts 231°
2026-05-06 12:20 51.47594 -0.46250 86 ft 14 kts 270°
2026-05-06 12:21 51.47593 -0.46426 86 ft 17 kts 269°
2026-05-06 12:21 51.47593 -0.46630 88 ft 20 kts 270°
2026-05-06 12:21 51.47588 -0.46835 86 ft 18 kts 260°
2026-05-06 12:21 51.47583 -0.47060 89 ft 21 kts 269°
2026-05-06 12:22 51.47582 -0.47319 90 ft 24 kts 269°
2026-05-06 12:22 51.47581 -0.47549 87 ft 21 kts 270°
2026-05-06 12:22 51.47581 -0.47735 90 ft 17 kts 270°
2026-05-06 12:22 51.47580 -0.47927 88 ft 17 kts 269°
2026-05-06 12:23 51.47579 -0.48126 87 ft 19 kts 270°
2026-05-06 12:23 51.47578 -0.48358 87 ft 22 kts 270°
2026-05-06 12:23 51.47528 -0.48473 88 ft 12 kts 188°
2026-05-06 12:23 51.47439 -0.48475 86 ft 14 kts 179°
2026-05-06 12:24 51.47339 -0.48474 86 ft 15 kts 179°
2026-05-06 12:24 51.47248 -0.48474 86 ft 11 kts 180°
2026-05-06 12:24 51.47166 -0.48473 86 ft 12 kts 180°
2026-05-06 12:24 51.47127 -0.48534 87 ft 9 kts 268°
2026-05-06 12:25 51.47127 -0.48611 86 ft 3 kts 270°
2026-05-06 12:25 51.47127 -0.48618 86 ft 0 kts 270°
2026-05-06 12:26 51.47127 -0.48612 86 ft 0 kts 269°
2026-05-06 12:28 51.47087 -0.48584 90 ft 0 kts 270°
2026-05-06 12:29 51.47127 -0.48612 86 ft 0 kts 269°
2026-05-06 12:30 51.47134 -0.48610 86 ft 0 kts 269°